Weather in Novodvinsk

Russia / Arkhangel'skaya Oblast'     64°24′49″N   40°49′14″E
temp.,
°C
wind,
m/s
gust,
m/s
humid.,
%
clouds,
%
prec.,
mm/h
press.,
hPa
HPBL,
m
18 august, thu
thu1800:00+19s27743 0.0 1020132
03:00+17sse27815 0.0 1021123
06:00+18s27805 0.0 1021180
09:00+25ssw48525 0.0 1021522
12:00+28ssw57365 0.0 10221746
15:00+29ssw46345 0.0 10222047
18:00+26s374514 0.0 1022489
21:00+21s31064100 0.0 1023198
19 august, fri
fri1900:00+18ssw277098 0.0 1024133
03:00+17s267529 0.0 1025102
06:00+18s25765 0.0 1026145
09:00+24ssw35545 0.0 1027483
12:00+28sw46435 0.0 10271572
15:00+29sw45398 0.0 10262245
18:00+27s37471 0.0 1026413
21:00+21s311690 0.0 1027223
20 august, sat
sat2000:00+20ssw311630 0.0 1027284
03:00+17ssw28760 0.0 1028161
06:00+18ssw29754 0.0 1028217
09:00+24ssw36540 0.0 1028483
12:00+27ssw45415 0.0 10281285
15:00+27ssw453310 0.0 10271551
18:00+24s374258 0.0 1027339
21:00+18s386339 0.0 1027140
21 august, sun
sun2100:00+15ssw286617 0.0 1027150
03:00+14ssw26670 0.0 1027110
06:00+14s27700 0.0 1027157
09:00+21s4749100 0.0 1027424
12:00+24s4642100 0.0 1026789
15:00+24s4742100 0.0 1025938
18:00+23s494789 0.0 1025646
21:00+17sse310645 0.0 1025195
22 august, mon
mon2200:00+15sse310695 0.0 1024183
03:00+14sse3870100 0.0 1024139
06:00+17sse3106093 0.0 1024235
09:00+22s48465 0.0 1024506
12:00+26ssw58325 0.0 10241424
15:00+27ssw473199 0.0 10231860
18:00+23s394798 0.0 1023291
21:00+18s3106355 0.0 1023192